This demonstration page uses our WeatherBlox Daily Observations layout. Learn more.

36.17497, -115.13722

Hourly Observations for July 27, 2019

Temp ( °F °C ) Dew Point ( °F °C ) Humidity (%) Winds ( mph kmh ) Pressure ( in mb ) Visibility ( mi km ) Precip ( " mm )
12:53 am 00:53 Partly Cloudy 92 33.3 53 11.7 27 27 NNW 16 26 29.91 1013 10 16.09344 0 0
1:53 am 01:53 Mostly Clear 89 31.7 53 11.7 29 29 N 14 22 29.91 1013 10 16.09344 0 0
2:53 am 02:53 Clear 87 30.6 54 12.2 32 32 NNW 13 20 29.91 1013 10 16.09344 0 0
3:53 am 03:53 Clear 87 30.6 53 11.7 31 31 N 6 9 29.91 1013 10 16.09344 0 0
4:53 am 04:53 Clear 86 30 53 11.7 32 32 NNW 12 19 29.94 1014 10 16.09344 0 0
5:53 am 05:53 Sunny 85 29.4 53 11.7 33 33 N 13 20 29.94 1014 10 16.09344 0 0
6:53 am 06:53 Sunny 86 30 54 12.2 33 33 NNW 12 19 29.97 1015 10 16.09344 0 0
7:53 am 07:53 Sunny 89 31.7 53 11.7 29 29 NNW 12 19 29.97 1015 10 16.09344 0 0
8:53 am 08:53 Sunny 93 33.9 54 12.2 27 27 NNW 13 20 29.97 1015 10 16.09344 0 0
9:53 am 09:53 Sunny 95 35 53 11.7 24 24 NNW 10 17 29.97 1015 10 16.09344 0 0
10:53 am 10:53 Sunny 99 37.2 53 11.7 21 21 NNE 8 13 29.97 1015 10 16.09344 0 0
11:53 am 11:53 Sunny 99 37.2 51 10.6 20 20 VRB 3 6 29.94 1014 10 16.09344 0 0
12:53 pm 12:53 Sunny 101 38.3 50 10 18 18 NNW 7 11 29.94 1014 10 16.09344 0 0
1:53 pm 13:53 Sunny 104 40 47 8.3 15 15 VRB 6 9 29.91 1013 10 16.09344 0 0
2:53 pm 14:53 Sunny 104 40 48 8.9 15 15 N 7 11 29.88 1012 10 16.09344 0 0
3:53 pm 15:53 Sunny 105 40.6 49 9.4 15 15 SW 14 22 29.85 1011 10 16.09344 0 0
4:53 pm 16:53 Sunny 105 40.6 48 8.9 15 15 SW 9 15 29.83 1010 10 16.09344 0 0
5:53 pm 17:53 Sunny 106 41.1 45 7.2 13 13 WNW 8 13 29.83 1010 10 16.09344 0 0
6:53 pm 18:53 Sunny 104 40 48 8.9 15 15 W 10 17 29.83 1010 10 16.09344 0 0
7:53 pm 19:53 Clear 103 39.4 46 7.8 15 15 N 8 13 29.83 1010 10 16.09344 0 0
8:53 pm 20:53 Clear 101 38.3 46 7.8 15 15 NNE 5 7 29.85 1011 10 16.09344 0 0
9:53 pm 21:53 Clear 98 36.7 46 7.8 17 17 WNW 5 7 29.85 1011 10 16.09344 0 0
10:53 pm 22:53 Clear 95 35 47 8.3 19 19 NNW 8 13 29.85 1011 10 16.09344 0 0
11:53 pm 23:53 Clear 94 34.4 48 8.9 21 21 WNW 8 13 29.85 1011 10 16.09344 0 0

Powered by AerisWeather